Tracking 22881 objects as of 19-Apr-2021
HD Live streaming from Space Station
objects crossing your sky now

STARLINK-1798

Track STARLINK-1798 now!
10-day predictions
STARLINK-1798 is classified as:


NORAD ID: 46779
Int'l Code: 2020-074AS
Perigee: 553.1 km
Apogee: 555.6 km
Inclination: 53.0 °
Period: 95.6 minutes
Semi major axis: 6925 km
RCS: Unknown
Launch date: October 24, 2020
Source: United States (US)
Launch site: AIR FORCE EASTERN TEST RANGE (AFETR)
aabbcc
Your satellite tracking list
Your tracking list is empty




NASA's NSSDC Master Catalog

Two Line Element Set (TLE):
1 46779U 20074AS  21109.18205052 -.00001918  00000-0 -10993-3 0  9998
2 46779  53.0494  47.0922 0001803  71.6417 288.4768 15.06391616 27417
Source of the keplerian elements: AFSPC